,,Stat6,,Stat2,,Stat8,,Stat9,,Stat10,,Wind1,,Wind1,
time,status,PA1M_AVG,status,PR1M_SUM,status,RH1M_AVG,status,SR1M_AVG,status,TA1M_AVG,status,W1dAve1m,status,W1sAve1m,
2007-08-08, 00:00:00,VALID,916.616,VALID,0,VALID,100,VALID,0,VALID,19.8181,VALID,119,VALID,1.00955,
2007-08-08, 00:01:00,VALID,916.615,VALID,0,VALID,100,VALID,0.0679233,VALID,19.8081,VALID,121,VALID,1.24528,
2007-08-08, 00:02:00,VALID,916.607,VALID,0,VALID,100,VALID,0.101885,VALID,19.8081,VALID,119,VALID,0.857515,
2007-08-08, 00:03:00,VALID,916.602,VALID,0,VALID,100,VALID,0.101885,VALID,19.8084,VALID,116,VALID,0.974201,
2007-08-08, 00:04:00,VALID,916.59,VALID,0,VALID,100,VALID,0.0849042,VALID,19.7984,VALID,113,VALID,0.858842,
2007-08-08, 00:05:00,VALID,916.577,VALID,0,VALID,100,VALID,0.0849042,VALID,19.7887,VALID,107,VALID,1.03316,
2007-08-08, 00:06:01,VALID,916.565,VALID,0,VALID,100,VALID,0.0679233,VALID,19.7852,VALID,102,VALID,0.915039,
2007-08-08, 00:07:00,VALID,916.573,VALID,0,VALID,100,VALID,0.0679233,VALID,19.7822,VALID,106,VALID,0.682958,
2007-08-08, 00:08:00,VALID,916.557,VALID,0,VALID,100,VALID,0.0509425,VALID,19.7797,VALID,97,VALID,0.716406,
2007-08-08, 00:09:01,VALID,916.546,VALID,0,VALID,100,VALID,0.0169808,VALID,19.7692,VALID,97,VALID,0.757622,
2007-08-08, 00:10:00,VALID,916.535,VALID,0,VALID,100,VALID,0.0679233,VALID,19.7724,VALID,69,VALID,0.897675,
2007-08-08, 00:11:00,VALID,916.52,VALID,0,VALID,100,VALID,0.0509425,VALID,19.7657,VALID,69,VALID,0.955664,
2007-08-08, 00:12:01,VALID,916.503,VALID,0,VALID,100,VALID,0.0339617,VALID,19.7724,VALID,72,VALID,0.879616,
2007-08-08, 00:13:01,VALID,916.497,VALID,0,VALID,100,VALID,0.101885,VALID,19.7627,VALID,72,VALID,0.871466,
2007-08-08, 00:14:00,VALID,916.477,VALID,0,VALID,100,VALID,0.0679233,VALID,19.7462,VALID,72,VALID,0.767857,
2007-08-08, 00:15:00,VALID,916.468,VALID,0,VALID,100,VALID,0,VALID,19.748,VALID,72,VALID,0.917969,
2007-08-08, 00:16:01,VALID,916.467,VALID,0,VALID,100,VALID,-0.0849042,VALID,19.735,VALID,86,VALID,0.904797,
2007-08-08, 00:17:00,VALID,916.465,VALID,0,VALID,100,VALID,-0.0169808,VALID,19.7285,VALID,95,VALID,0.674479,
2007-08-08, 00:18:01,VALID,916.453,VALID,0,VALID,100,VALID,-0.0509425,VALID,19.7253,VALID,120,VALID,0.798781,
2007-08-08, 00:19:00,VALID,916.444,VALID,0,VALID,100,VALID,-0.0849042,VALID,19.7123,VALID,122,VALID,0.956032,
2007-08-08, 00:20:00,VALID,916.425,VALID,0,VALID,100,VALID,-0.0169808,VALID,19.7188,VALID,123,VALID,0.613381,
2007-08-08, 00:21:00,VALID,916.419,VALID,0,VALID,100,VALID,-0.0169808,VALID,19.7253,VALID,130,VALID,0.744978,
2007-08-08, 00:22:00,VALID,916.409,VALID,0,VALID,100,VALID,-0.0509425,VALID,19.7315,VALID,142,VALID,0.941964,
2007-08-08, 00:23:00,VALID,916.402,VALID,0,VALID,100,VALID,0,VALID,19.7447,VALID,146,VALID,0.867914,
2007-08-08, 00:24:00,VALID,916.398,VALID,0,VALID,100,VALID,-0.0169808,VALID,19.7577,VALID,142,VALID,1.02958,
2007-08-08, 00:25:00,VALID,916.393,VALID,0,VALID,100,VALID,-0.0169808,VALID,19.7442,VALID,132,VALID,1.07757,
2007-08-08, 00:26:00,VALID,916.383,VALID,0,VALID,100,VALID,-0.0339617,VALID,19.7475,VALID,127,VALID,0.74858,
2007-08-08, 00:27:00,VALID,916.374,VALID,0,VALID,100,VALID,-0.0169808,VALID,19.7507,VALID,129,VALID,0.92294,
2007-08-08, 00:28:01,VALID,916.363,VALID,0,VALID,100,VALID,-0.0339617,VALID,19.7542,VALID,125,VALID,1.11861,
2007-08-08, 00:29:00,VALID,916.344,VALID,0,VALID,100,VALID,-0.0679233,VALID,19.7542,VALID,127,VALID,1.16667,
2007-08-08, 00:30:00,VALID,916.324,VALID,0,VALID,100,VALID,-0.0679233,VALID,19.7709,VALID,130,VALID,0.840199,
2007-08-08, 00:31:01,VALID,916.306,VALID,0,VALID,100,VALID,-0.0169808,VALID,19.7674,VALID,130,VALID,0.977121,
2007-08-08, 00:32:00,VALID,916.279,VALID,0,VALID,100,VALID,-0.0509425,VALID,19.7672,VALID,132,VALID,0.790015,
2007-08-08, 00:33:00,VALID,916.255,VALID,0,VALID,100,VALID,-0.0169808,VALID,19.7769,VALID,130,VALID,0.781072,
2007-08-08, 00:34:00,VALID,916.232,VALID,0,VALID,100,VALID,-0.0169808,VALID,19.7864,VALID,130,VALID,0.444957,
2007-08-08, 00:35:00,VALID,916.214,VALID,0,VALID,100,VALID,-0.0169808,VALID,19.8064,VALID,130,VALID,0.548018,
2007-08-08, 00:36:00,VALID,916.205,VALID,0,VALID,100,VALID,-0.0169808,VALID,19.8064,VALID,129,VALID,0.426921,
2007-08-08, 00:37:00,VALID,916.185,VALID,0,VALID,100,VALID,-0.0169808,VALID,19.8226,VALID,129,VALID,0.354992,
2007-08-08, 00:38:00,VALID,916.182,VALID,0,VALID,100,VALID,-0.0339617,VALID,19.8486,VALID,110,VALID,0.425686,
2007-08-08, 00:39:01,VALID,916.17,VALID,0,VALID,100,VALID,-0.101885,VALID,19.8615,VALID,108,VALID,0.536932,
2007-08-08, 00:40:00,VALID,916.159,VALID,0,VALID,100,VALID,-0.0339617,VALID,19.855,VALID,96,VALID,0.672461,
2007-08-08, 00:41:01,VALID,916.141,VALID,0,VALID,100,VALID,-0.0169808,VALID,19.8356,VALID,74,VALID,0.551736,
2007-08-08, 00:42:00,VALID,916.144,VALID,0,VALID,100,VALID,-0.0509425,VALID,19.8518,VALID,51,VALID,0.758903,
2007-08-08, 00:43:01,VALID,916.115,VALID,0,VALID,100,VALID,-0.0339617,VALID,19.865,VALID,39,VALID,0.866235,
2007-08-08, 00:44:00,VALID,916.106,VALID,0,VALID,100,VALID,-0.0679233,VALID,19.8386,VALID,45,VALID,0.880035,
2007-08-08, 00:45:01,VALID,916.093,VALID,0,VALID,100,VALID,-0.0679233,VALID,19.8388,VALID,33,VALID,0.924716,
2007-08-08, 00:46:00,VALID,916.07,VALID,0,VALID,100,VALID,-0.0509425,VALID,19.8026,VALID,30,VALID,1.11858,
2007-08-08, 00:47:01,VALID,916.049,VALID,0,VALID,100,VALID,-0.0509425,VALID,19.7999,VALID,33,VALID,1.22275,
2007-08-08, 00:48:00,VALID,916.025,VALID,0,VALID,100,VALID,-0.0509425,VALID,19.7934,VALID,42,VALID,0.790153,
2007-08-08, 00:49:01,VALID,916.013,VALID,0,VALID,100,VALID,-0.0509425,VALID,19.7966,VALID,40,VALID,0.775391,
2007-08-08, 00:50:01,VALID,915.995,VALID,0,VALID,100,VALID,-0.0339617,VALID,19.7864,VALID,41,VALID,0.904247,
2007-08-08, 00:51:01,VALID,915.97,VALID,0,VALID,100,VALID,-0.0509425,VALID,19.7966,VALID,34,VALID,0.567472,
2007-08-08, 00:52:01,VALID,915.966,VALID,0,VALID,100,VALID,-0.0339617,VALID,19.7899,VALID,26,VALID,0.902435,
2007-08-08, 00:53:01,VALID,915.948,VALID,0,VALID,100,VALID,-0.0679233,VALID,19.7869,VALID,10,VALID,0.963816,
2007-08-08, 00:54:00,VALID,915.941,VALID,0,VALID,100,VALID,-0.0849042,VALID,19.7742,VALID,349,VALID,1.16499,
2007-08-08, 00:55:01,VALID,915.926,VALID,0,VALID,100,VALID,-0.0679233,VALID,19.7642,VALID,348,VALID,0.956101,
2007-08-08, 00:56:01,VALID,915.895,VALID,0,VALID,100,VALID,-0.0509425,VALID,19.761,VALID,338,VALID,0.561285,
2007-08-08, 00:57:01,VALID,915.867,VALID,0,VALID,100,VALID,-0.0679233,VALID,19.7739,VALID,345,VALID,0.295312,
2007-08-08, 00:58:01,VALID,915.84,VALID,0,VALID,100,VALID,-0.0849042,VALID,19.8194,VALID,352,VALID,0.242188,
2007-08-08, 00:59:01,VALID,915.828,VALID,0,VALID,100,VALID,-0.0679233,VALID,19.8094,VALID,348,VALID,0.424006,
2007-08-08, 01:00:01,VALID,915.827,VALID,0,VALID,100,VALID,0.0679233,VALID,19.7954,VALID,334,VALID,0.537348,
2007-08-08, 01:01:01,VALID,915.834,VALID,0,VALID,100,VALID,0.0509425,VALID,19.7754,VALID,327,VALID,0.406808,
2007-08-08, 01:02:00,VALID,915.836,VALID,0,VALID,100,VALID,0.0509425,VALID,19.7984,VALID,327,VALID,0.147461,
2007-08-08, 01:03:00,VALID,915.848,VALID,0,VALID,100,VALID,0.0679233,VALID,19.7979,VALID,327,VALID,0.078125,
2007-08-08, 01:04:00,VALID,915.836,VALID,0,VALID,100,VALID,0.0509425,VALID,19.8149,VALID,327,VALID,0,
2007-08-08, 01:05:00,VALID,915.812,VALID,0,VALID,100,VALID,0,VALID,19.8016,VALID,327,VALID,0,
2007-08-08, 01:06:00,VALID,915.789,VALID,0,VALID,100,VALID,0.0849042,VALID,19.8114,VALID,327,VALID,0,
2007-08-08, 01:07:00,VALID,915.77,VALID,0,VALID,100,VALID,0.101885,VALID,19.7984,VALID,327,VALID,0,
2007-08-08, 01:08:00,VALID,915.759,VALID,0,VALID,100,VALID,0.0679233,VALID,19.7819,VALID,327,VALID,0,
2007-08-08, 01:09:00,VALID,915.757,VALID,0,VALID,100,VALID,0.0339617,VALID,19.7692,VALID,327,VALID,0,
2007-08-08, 01:10:00,VALID,915.765,VALID,0,VALID,100,VALID,0.0849042,VALID,19.7619,VALID,327,VALID,0,
2007-08-08, 01:11:00,VALID,915.767,VALID,0,VALID,100,VALID,0.0679233,VALID,19.7659,VALID,327,VALID,0.174893,
2007-08-08, 01:12:00,VALID,915.757,VALID,0,VALID,100,VALID,0.0509425,VALID,19.7565,VALID,327,VALID,0.0903445,
2007-08-08, 01:13:00,VALID,915.745,VALID,0,VALID,100,VALID,0.0509425,VALID,19.7562,VALID,327,VALID,0.0605903,
2007-08-08, 01:14:00,VALID,915.731,VALID,0,VALID,100,VALID,0.0849042,VALID,19.7497,VALID,327,VALID,0,
2007-08-08, 01:15:00,VALID,915.727,VALID,0,VALID,100,VALID,-0.0509425,VALID,19.7575,VALID,327,VALID,0.273074,
2007-08-08, 01:16:00,VALID,915.74,VALID,0,VALID,100,VALID,-0.0339617,VALID,19.7512,VALID,246,VALID,0.380682,
2007-08-08, 01:17:00,VALID,915.744,VALID,0,VALID,100,VALID,-0.0169808,VALID,19.7278,VALID,240,VALID,0.318638,
2007-08-08, 01:18:00,VALID,915.75,VALID,0,VALID,100,VALID,-0.0339617,VALID,19.7185,VALID,219,VALID,0.527734,
2007-08-08, 01:19:00,VALID,915.758,VALID,0,VALID,100,VALID,-0.0679233,VALID,19.6891,VALID,207,VALID,0.554883,
2007-08-08, 01:20:00,VALID,915.762,VALID,0,VALID,100,VALID,-0.0169808,VALID,19.6961,VALID,210,VALID,0.396484,
2007-08-08, 01:21:00,VALID,915.766,VALID,0,VALID,100,VALID,-0.101885,VALID,19.6833,VALID,205,VALID,0.324491,
2007-08-08, 01:22:00,VALID,915.775,VALID,0,VALID,100,VALID,-0.0679233,VALID,19.6733,VALID,193,VALID,0.481585,
2007-08-08, 01:23:00,VALID,915.788,VALID,0,VALID,100,VALID,-0.0339617,VALID,19.6669,VALID,180,VALID,1.01296,
2007-08-08, 01:24:00,VALID,915.79,VALID,0,VALID,100,VALID,-0.0679233,VALID,19.6601,VALID,172,VALID,0.890092,
2007-08-08, 01:25:00,VALID,915.788,VALID,0,VALID,100,VALID,-0.0169808,VALID,19.6372,VALID,161,VALID,0.775568,
2007-08-08, 01:26:00,VALID,915.784,VALID,0,VALID,100,VALID,-0.0509425,VALID,19.6244,VALID,158,VALID,0.538352,
2007-08-08, 01:27:00,VALID,915.786,VALID,0,VALID,100,VALID,-0.0509425,VALID,19.6212,VALID,173,VALID,0.509909,
2007-08-08, 01:28:00,VALID,915.782,VALID,0,VALID,100,VALID,-0.0339617,VALID,19.6344,VALID,183,VALID,0.329799,
2007-08-08, 01:29:00,VALID,915.791,VALID,0,VALID,100,VALID,-0.0679233,VALID,19.6409,VALID,183,VALID,0.120916,
2007-08-08, 01:30:00,VALID,915.795,VALID,0,VALID,100,VALID,-0.0509425,VALID,19.6379,VALID,183,VALID,0.076029,
2007-08-08, 01:31:00,VALID,915.796,VALID,0,VALID,100,VALID,-0.0849042,VALID,19.6544,VALID,183,VALID,0.292436,
2007-08-08, 01:32:00,VALID,915.811,VALID,0,VALID,100,VALID,0,VALID,19.6606,VALID,182,VALID,0.132635,
2007-08-08, 01:33:00,VALID,915.821,VALID,0,VALID,100,VALID,-0.0169808,VALID,19.6766,VALID,182,VALID,0.124467,
2007-08-08, 01:34:00,VALID,915.819,VALID,0,VALID,100,VALID,-0.0509425,VALID,19.6736,VALID,182,VALID,0.264717,
2007-08-08, 01:35:00,VALID,915.811,VALID,0,VALID,100,VALID,-0.0339617,VALID,19.6604,VALID,169,VALID,0.357376,
2007-08-08, 01:36:00,VALID,915.777,VALID,0,VALID,100,VALID,-0.0339617,VALID,19.6604,VALID,147,VALID,0.53404,
2007-08-08, 01:37:00,VALID,915.735,VALID,0,VALID,100,VALID,0,VALID,19.6569,VALID,123,VALID,0.763808,
2007-08-08, 01:38:00,VALID,915.685,VALID,0,VALID,100,VALID,-0.0339617,VALID,19.6604,VALID,123,VALID,0.797585,
2007-08-08, 01:39:00,VALID,915.628,VALID,0,VALID,100,VALID,-0.0339617,VALID,19.6444,VALID,123,VALID,0.378089,
2007-08-08, 01:40:00,VALID,915.571,VALID,0,VALID,100,VALID,-0.0509425,VALID,19.6471,VALID,123,VALID,0.466146,
2007-08-08, 01:41:00,VALID,915.542,VALID,0,VALID,100,VALID,-0.0169808,VALID,19.6407,VALID,123,VALID,0.207118,
2007-08-08, 01:42:00,VALID,915.497,VALID,0,VALID,100,VALID,-0.0169808,VALID,19.6439,VALID,123,VALID,0.208333,
2007-08-08, 01:43:00,VALID,915.497,VALID,0,VALID,100,VALID,-0.0169808,VALID,19.6571,VALID,123,VALID,0.356712,
2007-08-08, 01:44:00,VALID,915.482,VALID,0,VALID,100,VALID,-0.0169808,VALID,19.6504,VALID,126,VALID,0.430575,
2007-08-08, 01:45:00,VALID,915.5,VALID,0,VALID,100,VALID,-0.0509425,VALID,19.6604,VALID,130,VALID,0.548018,
2007-08-08, 01:46:00,VALID,915.51,VALID,0,VALID,100,VALID,0,VALID,19.6506,VALID,129,VALID,0.65253,
2007-08-08, 01:47:00,VALID,915.525,VALID,0,VALID,100,VALID,0,VALID,19.6304,VALID,121,VALID,0.622713,
2007-08-08, 01:48:00,VALID,915.53,VALID,0,VALID,100,VALID,-0.0679233,VALID,19.6177,VALID,117,VALID,0.649239,
2007-08-08, 01:49:00,VALID,915.527,VALID,0,VALID,100,VALID,-0.0509425,VALID,19.6182,VALID,115,VALID,0.269345,
2007-08-08, 01:50:00,VALID,915.511,VALID,0,VALID,100,VALID,-0.0339617,VALID,19.602,VALID,115,VALID,0.344792,
2007-08-08, 01:51:00,VALID,915.501,VALID,0,VALID,100,VALID,-0.0509425,VALID,19.589,VALID,115,VALID,0.618786,
2007-08-08, 01:52:00,VALID,915.499,VALID,0,VALID,100,VALID,-0.0339617,VALID,19.5728,VALID,115,VALID,0.488086,
2007-08-08, 01:53:00,VALID,915.505,VALID,0,VALID,100,VALID,-0.0339617,VALID,19.563,VALID,115,VALID,0.505035,
2007-08-08, 01:54:00,VALID,915.5,VALID,0,VALID,100,VALID,-0.0169808,VALID,19.5628,VALID,115,VALID,0.634055,
2007-08-08, 01:55:00,VALID,915.528,VALID,0,VALID,100,VALID,0,VALID,19.5565,VALID,115,VALID,0.641158,
2007-08-08, 01:56:00,VALID,915.554,VALID,0,VALID,100,VALID,-0.0339617,VALID,19.5595,VALID,102,VALID,0.883539,
2007-08-08, 01:57:00,VALID,915.577,VALID,0,VALID,100,VALID,-0.0169808,VALID,19.5595,VALID,107,VALID,0.866257,
2007-08-08, 01:58:00,VALID,915.585,VALID,0,VALID,100,VALID,-0.0339617,VALID,19.5498,VALID,105,VALID,0.863281,
2007-08-08, 01:59:00,VALID,915.588,VALID,0,VALID,100,VALID,0.0169808,VALID,19.5528,VALID,118,VALID,0.764898,
2007-08-08, 02:00:00,VALID,915.593,VALID,0,VALID,100,VALID,0,VALID,19.5531,VALID,120,VALID,0.444957,
2007-08-08, 02:01:00,VALID,915.59,VALID,0,VALID,100,VALID,-0.0169808,VALID,19.5561,VALID,131,VALID,0.567014,
2007-08-08, 02:02:00,VALID,915.593,VALID,0,VALID,100,VALID,-0.0339617,VALID,19.5758,VALID,133,VALID,0.52468,
2007-08-08, 02:03:00,VALID,915.596,VALID,0,VALID,100,VALID,-0.0169808,VALID,19.5823,VALID,133,VALID,0.174055,
2007-08-08, 02:04:00,VALID,915.608,VALID,0,VALID,100,VALID,-0.0339617,VALID,19.5987,VALID,133,VALID,0.283918,
2007-08-08, 02:05:00,VALID,915.615,VALID,0,VALID,100,VALID,-0.0509425,VALID,19.6087,VALID,133,VALID,0.0922619,
2007-08-08, 02:06:00,VALID,915.618,VALID,0,VALID,100,VALID,-0.0849042,VALID,19.6282,VALID,133,VALID,0.23402,
2007-08-08, 02:07:00,VALID,915.621,VALID,0,VALID,100,VALID,-0.0169808,VALID,19.6469,VALID,136,VALID,0.203125,
2007-08-08, 02:08:00,VALID,915.622,VALID,0,VALID,100,VALID,-0.0169808,VALID,19.6636,VALID,136,VALID,0.00917969,
2007-08-08, 02:09:00,VALID,915.616,VALID,0,VALID,100,VALID,-0.0169808,VALID,19.6798,VALID,136,VALID,0,
2007-08-08, 02:10:00,VALID,915.616,VALID,0,VALID,100,VALID,-0.0339617,VALID,19.6861,VALID,136,VALID,0,
2007-08-08, 02:11:00,VALID,915.633,VALID,0,VALID,100,VALID,-0.0169808,VALID,19.6961,VALID,136,VALID,0.0690104,
2007-08-08, 02:12:00,VALID,915.641,VALID,0,VALID,100,VALID,-0.0169808,VALID,19.7153,VALID,136,VALID,0.123598,
2007-08-08, 02:13:00,VALID,915.643,VALID,0,VALID,100,VALID,0,VALID,19.725,VALID,136,VALID,0.0180432,
2007-08-08, 02:14:00,VALID,915.649,VALID,0,VALID,100,VALID,-0.0169808,VALID,19.7447,VALID,136,VALID,0,
2007-08-08, 02:15:00,VALID,915.65,VALID,0,VALID,100,VALID,-0.0509425,VALID,19.7512,VALID,136,VALID,0.00133384,
2007-08-08, 02:16:00,VALID,915.641,VALID,0,VALID,100,VALID,-0.0169808,VALID,19.7445,VALID,136,VALID,0.238372,
2007-08-08, 02:17:00,VALID,915.648,VALID,0,VALID,100,VALID,-0.0849042,VALID,19.7382,VALID,136,VALID,0.592797,
2007-08-08, 02:18:00,VALID,915.632,VALID,0,VALID,100,VALID,-0.0679233,VALID,19.7123,VALID,131,VALID,0.691707,
2007-08-08, 02:19:00,VALID,915.625,VALID,0,VALID,100,VALID,-0.0339617,VALID,19.6831,VALID,116,VALID,0.66061,
2007-08-08, 02:20:00,VALID,915.609,VALID,0,VALID,100,VALID,-0.0339617,VALID,19.6796,VALID,104,VALID,0.572173,
2007-08-08, 02:21:00,VALID,915.608,VALID,0,VALID,100,VALID,-0.0679233,VALID,19.6798,VALID,104,VALID,0.401389,
2007-08-08, 02:22:00,VALID,915.584,VALID,0,VALID,100,VALID,-0.0339617,VALID,19.6761,VALID,105,VALID,0.395275,
2007-08-08, 02:23:00,VALID,915.563,VALID,0,VALID,100,VALID,-0.0339617,VALID,19.6896,VALID,105,VALID,0.479883,
2007-08-08, 02:24:00,VALID,915.56,VALID,0,VALID,100,VALID,0,VALID,19.709,VALID,98,VALID,0.611374,
2007-08-08, 02:25:00,VALID,915.546,VALID,0,VALID,100,VALID,-0.0509425,VALID,19.6928,VALID,78,VALID,0.631424,
2007-08-08, 02:26:00,VALID,915.546,VALID,0,VALID,100,VALID,-0.0849042,VALID,19.6863,VALID,81,VALID,0.727564,
2007-08-08, 02:27:00,VALID,915.544,VALID,0,VALID,100,VALID,-0.0339617,VALID,19.6863,VALID,86,VALID,0.533789,
2007-08-08, 02:28:00,VALID,915.532,VALID,0,VALID,100,VALID,-0.0169808,VALID,19.6798,VALID,83,VALID,0.452237,
2007-08-08, 02:29:00,VALID,915.507,VALID,0,VALID,100,VALID,-0.0339617,VALID,19.6928,VALID,84,VALID,0.213415,
2007-08-08, 02:30:00,VALID,915.492,VALID,0,VALID,100,VALID,-0.0339617,VALID,19.6858,VALID,84,VALID,0.223514,
2007-08-08, 02:31:00,VALID,915.477,VALID,0,VALID,100,VALID,-0.0679233,VALID,19.712,VALID,83,VALID,0.489955,
2007-08-08, 02:32:00,VALID,915.456,VALID,0,VALID,100,VALID,-0.0509425,VALID,19.7083,VALID,82,VALID,0.561384,
2007-08-08, 02:33:00,VALID,915.443,VALID,0,VALID,100,VALID,-0.0509425,VALID,19.7153,VALID,76,VALID,0.661222,
2007-08-08, 02:34:00,VALID,915.423,VALID,0,VALID,100,VALID,-0.0679233,VALID,19.6856,VALID,77,VALID,0.737723,
2007-08-08, 02:35:00,VALID,915.419,VALID,0,VALID,100,VALID,-0.0509425,VALID,19.6801,VALID,77,VALID,0.504972,
2007-08-08, 02:36:00,VALID,915.398,VALID,0,VALID,100,VALID,-0.0849042,VALID,19.6733,VALID,104,VALID,0.837612,
2007-08-08, 02:37:00,VALID,915.375,VALID,0,VALID,100,VALID,-0.0849042,VALID,19.6469,VALID,109,VALID,0.707317,
2007-08-08, 02:38:00,VALID,915.358,VALID,0,VALID,100,VALID,-0.0509425,VALID,19.6569,VALID,100,VALID,0.626334,
2007-08-08, 02:39:00,VALID,915.34,VALID,0,VALID,100,VALID,-0.0679233,VALID,19.6474,VALID,112,VALID,0.728261,
2007-08-08, 02:40:00,VALID,915.325,VALID,0,VALID,100,VALID,-0.101885,VALID,19.6504,VALID,104,VALID,0.816406,
2007-08-08, 02:41:00,VALID,915.324,VALID,0,VALID,100,VALID,-0.0509425,VALID,19.6509,VALID,123,VALID,1.27634,
2007-08-08, 02:42:00,VALID,915.301,VALID,0,VALID,100,VALID,-0.101885,VALID,19.6377,VALID,126,VALID,1.15439,
2007-08-08, 02:43:00,VALID,915.294,VALID,0,VALID,100,VALID,-0.0509425,VALID,19.6309,VALID,142,VALID,0.976017,
2007-08-08, 02:44:00,VALID,915.263,VALID,0,VALID,100,VALID,-0.0679233,VALID,19.6307,VALID,140,VALID,1.01762,
2007-08-08, 02:45:00,VALID,915.234,VALID,0,VALID,100,VALID,-0.0849042,VALID,19.6377,VALID,142,VALID,1.10785,
2007-08-08, 02:46:00,VALID,915.201,VALID,0,VALID,100,VALID,-0.0679233,VALID,19.6342,VALID,140,VALID,1.10454,
2007-08-08, 02:47:00,VALID,915.164,VALID,0,VALID,100,VALID,-0.0339617,VALID,19.6342,VALID,145,VALID,0.743641,
2007-08-08, 02:48:00,VALID,915.133,VALID,0,VALID,100,VALID,-0.101885,VALID,19.6344,VALID,147,VALID,1.02798,
2007-08-08, 02:49:00,VALID,915.116,VALID,0,VALID,100,VALID,-0.0849042,VALID,19.6312,VALID,145,VALID,0.765092,
2007-08-08, 02:50:00,VALID,915.117,VALID,0,VALID,100,VALID,-0.0339617,VALID,19.6209,VALID,136,VALID,1.11648,
2007-08-08, 02:51:00,VALID,915.126,VALID,0,VALID,100,VALID,-0.0509425,VALID,19.6279,VALID,128,VALID,0.971657,
2007-08-08, 02:52:00,VALID,915.132,VALID,0,VALID,100,VALID,-0.0679233,VALID,19.6212,VALID,122,VALID,1.04788,
2007-08-08, 02:53:00,VALID,915.139,VALID,0,VALID,100,VALID,-0.0339617,VALID,19.6147,VALID,119,VALID,1.11433,
2007-08-08, 02:54:00,VALID,915.154,VALID,0,VALID,100,VALID,-0.0509425,VALID,19.6149,VALID,120,VALID,1.02083,
2007-08-08, 02:55:00,VALID,915.129,VALID,0,VALID,100,VALID,-0.101885,VALID,19.6149,VALID,115,VALID,1.0712,
2007-08-08, 02:56:00,VALID,915.105,VALID,0,VALID,100,VALID,-0.0849042,VALID,19.6182,VALID,102,VALID,1.07884,
2007-08-08, 02:57:00,VALID,915.063,VALID,0,VALID,100,VALID,-0.0849042,VALID,19.6017,VALID,106,VALID,1.18598,
2007-08-08, 02:58:00,VALID,915.025,VALID,0,VALID,100,VALID,-0.0849042,VALID,19.5985,VALID,86,VALID,0.940407,
2007-08-08, 02:59:00,VALID,914.975,VALID,0,VALID,100,VALID,-0.0509425,VALID,19.6017,VALID,103,VALID,0.876488,
2007-08-08, 03:00:00,VALID,914.943,VALID,0,VALID,100,VALID,-0.0679233,VALID,19.5922,VALID,118,VALID,0.87064,
2007-08-08, 03:01:00,VALID,914.92,VALID,0,VALID,100,VALID,-0.0679233,VALID,19.5848,VALID,123,VALID,0.733774,
2007-08-08, 03:02:00,VALID,914.92,VALID,0,VALID,100,VALID,-0.0679233,VALID,19.5987,VALID,151,VALID,0.967076,
2007-08-08, 03:03:00,VALID,914.93,VALID,0,VALID,100,VALID,-0.0339617,VALID,19.5955,VALID,150,VALID,1.21322,
2007-08-08, 03:04:00,VALID,914.949,VALID,0,VALID,100,VALID,-0.0339617,VALID,19.592,VALID,151,VALID,1.41629,
2007-08-08, 03:05:00,VALID,914.973,VALID,0,VALID,100,VALID,-0.0679233,VALID,19.5887,VALID,160,VALID,1.49023,
2007-08-08, 03:06:00,VALID,914.978,VALID,0,VALID,100,VALID,-0.0169808,VALID,19.5723,VALID,155,VALID,1.75074,
2007-08-08, 03:07:00,VALID,914.999,VALID,0,VALID,100,VALID,-0.0339617,VALID,19.5825,VALID,157,VALID,1.69624,
2007-08-08, 03:08:00,VALID,915.002,VALID,0,VALID,100,VALID,-0.0509425,VALID,19.579,VALID,163,VALID,1.46021,
2007-08-08, 03:09:00,VALID,914.975,VALID,0,VALID,100,VALID,-0.0339617,VALID,19.582,VALID,165,VALID,1.23171,
2007-08-08, 03:10:00,VALID,914.949,VALID,0,VALID,100,VALID,-0.0169808,VALID,19.5785,VALID,169,VALID,1.62402,
2007-08-08, 03:11:00,VALID,914.922,VALID,0,VALID,100,VALID,-0.0169808,VALID,19.572,VALID,173,VALID,1.47041,
2007-08-08, 03:12:00,VALID,914.882,VALID,0,VALID,100,VALID,-0.0509425,VALID,19.5825,VALID,172,VALID,0.972124,
2007-08-08, 03:13:00,VALID,914.862,VALID,0,VALID,100,VALID,-0.0679233,VALID,19.579,VALID,178,VALID,1.05748,
2007-08-08, 03:14:00,VALID,914.844,VALID,0,VALID,100,VALID,-0.0169808,VALID,19.5693,VALID,165,VALID,0.955793,
2007-08-08, 03:15:00,VALID,914.822,VALID,0,VALID,100,VALID,-0.0509425,VALID,19.563,VALID,176,VALID,0.924352,
2007-08-08, 03:16:00,VALID,914.795,VALID,0,VALID,100,VALID,-0.0509425,VALID,19.5595,VALID,164,VALID,1.09641,
2007-08-08, 03:17:00,VALID,914.782,VALID,0,VALID,100,VALID,-0.0509425,VALID,19.5628,VALID,176,VALID,1.26029,
2007-08-08, 03:18:00,VALID,914.768,VALID,0,VALID,100,VALID,-0.0849042,VALID,19.563,VALID,177,VALID,1.15352,
2007-08-08, 03:19:00,VALID,914.755,VALID,0,VALID,100,VALID,-0.101885,VALID,19.5663,VALID,170,VALID,1.3003,
2007-08-08, 03:20:00,VALID,914.744,VALID,0,VALID,100,VALID,-0.0679233,VALID,19.576,VALID,176,VALID,1.20366,
2007-08-08, 03:21:00,VALID,914.74,VALID,0,VALID,100,VALID,-0.0849042,VALID,19.5788,VALID,175,VALID,1.01353,
2007-08-08, 03:22:00,VALID,914.724,VALID,0,VALID,100,VALID,-0.0849042,VALID,19.599,VALID,179,VALID,0.706944,
2007-08-08, 03:23:00,VALID,914.732,VALID,0,VALID,100,VALID,-0.101885,VALID,19.5955,VALID,182,VALID,0.614879,
2007-08-08, 03:24:00,VALID,914.734,VALID,0,VALID,100,VALID,-0.0849042,VALID,19.579,VALID,182,VALID,0.652058,
2007-08-08, 03:25:00,VALID,914.764,VALID,0,VALID,100,VALID,-0.0849042,VALID,19.5892,VALID,184,VALID,0.613095,
2007-08-08, 03:26:00,VALID,914.767,VALID,0,VALID,100,VALID,-0.0849042,VALID,19.5723,VALID,184,VALID,0.397195,
2007-08-08, 03:27:00,VALID,914.774,VALID,0,VALID,100,VALID,-0.101885,VALID,19.5561,VALID,154,VALID,0.554497,
2007-08-08, 03:28:00,VALID,914.759,VALID,0,VALID,100,VALID,-0.101885,VALID,19.5501,VALID,121,VALID,1.02251,
2007-08-08, 03:29:00,VALID,914.781,VALID,0,VALID,100,VALID,-0.0509425,VALID,19.5563,VALID,115,VALID,1.08117,
2007-08-08, 03:30:00,VALID,914.782,VALID,0,VALID,100,VALID,0.0339617,VALID,19.5486,VALID,125,VALID,1.30051,
2007-08-08, 03:31:00,VALID,914.776,VALID,0,VALID,100,VALID,0,VALID,19.5578,VALID,148,VALID,1.09629,
2007-08-08, 03:32:00,VALID,914.781,VALID,0,VALID,100,VALID,0,VALID,19.571,VALID,145,VALID,1.19568,
2007-08-08, 03:33:00,VALID,914.782,VALID,0,VALID,100,VALID,0.0169808,VALID,19.5775,VALID,142,VALID,1.64918,
2007-08-08, 03:34:00,VALID,914.798,VALID,0,VALID,100,VALID,0,VALID,19.6065,VALID,134,VALID,0.998547,
2007-08-08, 03:35:00,VALID,914.808,VALID,0,VALID,100,VALID,0,VALID,19.6294,VALID,154,VALID,1.39705,
2007-08-08, 03:36:00,VALID,914.815,VALID,0,VALID,100,VALID,0,VALID,19.6489,VALID,143,VALID,1.6995,
2007-08-08, 03:37:00,VALID,914.828,VALID,0,VALID,100,VALID,0.0169808,VALID,19.6654,VALID,149,VALID,1.70201,
2007-08-08, 03:38:00,VALID,914.824,VALID,0,VALID,100,VALID,0.0339617,VALID,19.6749,VALID,143,VALID,1.55723,
2007-08-08, 03:39:00,VALID,914.831,VALID,0,VALID,100,VALID,0,VALID,19.6751,VALID,136,VALID,1.59588,